| time (UTC) | temp F | wind direction | speed knots | gust knots | rain 1hr in | rain 24hr in | rain mn in | humidity % | barometer mb |
| 20260506201912 | 43 | 352 | 0.0 | 2.6 | 0.00 | 0.00 | 0.00 | 92 | 1006.3 |
| 20260506201415 | 43 | 353 | 0.0 | 2.6 | 0.00 | 0.00 | 0.00 | 92 | 1006.2 |
| 20260506200918 | 43 | 353 | 0.0 | 0.9 | 0.00 | 0.00 | 0.00 | 92 | 1006.2 |
| 20260506200416 | 43 | 353 | 0.0 | 1.7 | 0.00 | 0.00 | 0.00 | 92 | 1006.2 |
| 20260506195912 | 43 | 353 | 1.7 | 3.5 | 0.00 | 0.00 | 0.00 | 92 | 1006.2 |
| 20260506195415 | 43 | 355 | 0.0 | 1.7 | 0.00 | 0.00 | 0.00 | 92 | 1006.0 |
| 20260506194912 | 43 | 355 | 0.0 | 1.7 | 0.00 | 0.00 | 0.00 | 92 | 1006.0 |
| 20260506194415 | 43 | 355 | 0.0 | 1.7 | 0.00 | 0.00 | 0.00 | 92 | 1006.0 |
| 20260506193915 | 43 | 355 | 0.0 | 1.7 | 0.00 | 0.00 | 0.00 | 92 | 1006.0 |
| 20260506193412 | 43 | 354 | 0.0 | 0.9 | 0.00 | 0.00 | 0.00 | 92 | 1006.0 |
| 20260506192913 | 43 | 354 | 0.0 | 2.6 | 0.00 | 0.00 | 0.00 | 92 | 1005.9 |
| 20260506192412 | 43 | 357 | 0.0 | 1.7 | 0.00 | 0.00 | 0.00 | 92 | 1005.8 |
| 20260506191913 | 43 | 356 | 0.9 | 1.7 | 0.00 | 0.00 | 0.00 | 93 | 1005.8 |
| 20260506191412 | 43 | 356 | 0.0 | 0.0 | 0.00 | 0.00 | 0.00 | 93 | 1005.8 |
| 20260506190916 | 43 | 356 | 0.0 | 0.9 | 0.00 | 0.00 | 0.00 | 92 | 1005.7 |
| 20260506190412 | 42 | 356 | 0.0 | 1.7 | 0.00 | 0.00 | 0.00 | 92 | 1005.8 |
| 20260506185915 | 42 | 356 | 0.0 | 0.0 | 0.00 | 0.00 | 0.00 | 92 | 1005.9 |
| 20260506185418 | 42 | 356 | 0.0 | 2.6 | 0.00 | 0.00 | 0.00 | 92 | 1006.0 |
| 20260506184912 | 42 | 356 | 0.0 | 0.9 | 0.00 | 0.00 | 0.00 | 92 | 1006.0 |
| 20260506184413 | 42 | 357 | 0.0 | 0.9 | 0.00 | 0.00 | 0.00 | 92 | 1006.2 |
| 20260506183915 | 42 | 357 | 0.0 | 3.5 | 0.00 | 0.00 | 0.00 | 92 | 1006.3 |
| 20260506183418 | 42 | 355 | 0.0 | 1.7 | 0.00 | 0.00 | 0.00 | 92 | 1006.4 |
| 20260506182915 | 42 | 355 | 0.0 | 1.7 | 0.00 | 0.00 | 0.00 | 92 | 1006.5 |
| 20260506182418 | 42 | 355 | 0.0 | 1.7 | 0.00 | 0.00 | 0.00 | 92 | 1006.4 |
| 20260506181918 | 42 | 355 | 0.9 | 0.9 | 0.00 | 0.00 | 0.00 | 92 | 1006.5 |
| 20260506181415 | 42 | 355 | 0.0 | 0.9 | 0.00 | 0.00 | 0.00 | 92 | 1006.6 |
| 20260506180917 | 42 | 355 | 0.0 | 2.6 | 0.00 | 0.00 | 0.00 | 92 | 1006.7 |
| 20260506180415 | 42 | 355 | 0.0 | 0.0 | 0.00 | 0.00 | 0.00 | 92 | 1006.6 |
| 20260506175912 | 42 | 355 | 0.0 | 0.9 | 0.00 | 0.00 | 0.00 | 92 | 1006.7 |
| 20260506175413 | 42 | 355 | 0.9 | 1.7 | 0.00 | 0.00 | 0.00 | 92 | 1006.6 |
| 20260506174912 | 42 | 355 | 0.0 | 1.7 | 0.00 | 0.00 | 0.00 | 92 | 1006.8 |
| 20260506174412 | 42 | 355 | 0.0 | 1.7 | 0.00 | 0.00 | 0.00 | 92 | 1006.9 |
| 20260506173915 | 42 | 355 | 0.0 | 0.9 | 0.00 | 0.00 | 0.00 | 93 | 1006.8 |
| 20260506173417 | 42 | 355 | 0.0 | 0.9 | 0.00 | 0.00 | 0.00 | 92 | 1006.9 |
| 20260506172912 | 42 | 355 | 0.9 | 0.9 | 0.00 | 0.00 | 0.00 | 92 | 1006.9 |
| 20260506172418 | 42 | 355 | 0.0 | 0.0 | 0.00 | 0.00 | 0.00 | 92 | 1007.1 |
| 20260506171913 | 42 | 355 | 0.0 | 1.7 | 0.00 | 0.00 | 0.00 | 92 | 1007.0 |
| 20260506171421 | 42 | 355 | 0.0 | 1.7 | 0.00 | 0.00 | 0.00 | 92 | 1006.9 |
| 20260506170917 | 42 | 355 | 0.0 | 2.6 | 0.00 | 0.00 | 0.00 | 92 | 1007.0 |
| 20260506170412 | 42 | 355 | 0.0 | 0.9 | 0.00 | 0.00 | 0.00 | 92 | 1006.7 |
| 20260506165911 | 42 | 355 | 0.0 | 1.7 | 0.00 | 0.00 | 0.00 | 92 | 1006.8 |
| 20260506165414 | 42 | 356 | 0.0 | 1.7 | 0.00 | 0.00 | 0.00 | 92 | 1007.1 |
| 20260506164914 | 42 | 356 | 0.0 | 1.7 | 0.00 | 0.00 | 0.00 | 92 | 1007.0 |
| 20260506164417 | 42 | 356 | 0.0 | 0.9 | 0.00 | 0.00 | 0.00 | 92 | 1007.1 |
| 20260506163911 | 42 | 356 | 0.0 | 1.7 | 0.00 | 0.00 | 0.00 | 92 | 1007.1 |
| 20260506163414 | 42 | 356 | 0.0 | 0.9 | 0.00 | 0.00 | 0.00 | 92 | 1007.2 |
| 20260506162914 | 41 | 356 | 0.0 | 1.7 | 0.00 | 0.00 | 0.00 | 92 | 1007.2 |
| 20260506162414 | 41 | 356 | 0.0 | 1.7 | 0.00 | 0.00 | 0.00 | 92 | 1007.3 |
| 20260506161911 | 41 | 356 | 0.0 | 2.6 | 0.00 | 0.00 | 0.00 | 92 | 1007.4 |
| 20260506161414 | 42 | 4 | 0.0 | 0.9 | 0.00 | 0.00 | 0.00 | 92 | 1007.4 |
| 20260506160911 | 42 | 4 | 0.9 | 0.9 | 0.00 | 0.00 | 0.00 | 92 | 1007.4 |
| 20260506160414 | 42 | 4 | 0.0 | 1.7 | 0.00 | 0.00 | 0.00 | 92 | 1007.4 |
| 20260506155917 | 42 | 4 | 0.0 | 1.7 | 0.00 | 0.00 | 0.00 | 92 | 1007.4 |
| 20260506155411 | 42 | 4 | 0.0 | 2.6 | 0.00 | 0.00 | 0.00 | 92 | 1007.5 |
| 20260506154914 | 42 | 1 | 0.9 | 2.6 | 0.00 | 0.00 | 0.00 | 92 | 1007.6 |
| 20260506154411 | 42 | 18 | 0.0 | 2.6 | 0.00 | 0.00 | 0.00 | 92 | 1007.6 |
| 20260506153911 | 42 | 333 | 0.0 | 2.6 | 0.00 | 0.00 | 0.00 | 92 | 1007.5 |
| 20260506153414 | 42 | 333 | 0.0 | 1.7 | 0.00 | 0.00 | 0.00 | 92 | 1007.3 |
| 20260506152918 | 42 | 333 | 0.0 | 1.7 | 0.00 | 0.00 | 0.00 | 91 | 1007.5 |
| 20260506152411 | 42 | 334 | 0.0 | 4.3 | 0.00 | 0.00 | 0.00 | 91 | 1007.6 |
| 20260506151914 | 42 | 358 | 0.0 | 0.9 | 0.00 | 0.00 | 0.00 | 92 | 1007.3 |
| 20260506151411 | 42 | 359 | 0.0 | 1.7 | 0.00 | 0.00 | 0.00 | 91 | 1007.4 |
| 20260506150917 | 42 | 359 | 0.0 | 0.0 | 0.00 | 0.00 | 0.00 | 92 | 1007.3 |
| 20260506150411 | 42 | 359 | 0.0 | 0.9 | 0.00 | 0.00 | 0.00 | 92 | 1007.2 |
| 20260506145911 | 42 | 16 | 0.0 | 0.0 | 0.00 | 0.00 | 0.00 | 92 | 1007.2 |
| 20260506145411 | 42 | 15 | 0.0 | 2.6 | 0.00 | 0.00 | 0.00 | 92 | 1007.2 |
| 20260506144914 | 42 | 323 | 0.0 | 0.0 | 0.00 | 0.00 | 0.00 | 92 | 1007.2 |
| 20260506144417 | 42 | 323 | 0.0 | 0.9 | 0.00 | 0.00 | 0.00 | 92 | 1007.3 |
| 20260506143918 | 42 | 323 | 0.0 | 0.0 | 0.00 | 0.00 | 0.00 | 92 | 1007.2 |
| 20260506143418 | 42 | 323 | 0.0 | 0.0 | 0.00 | 0.00 | 0.00 | 92 | 1007.2 |
| 20260506142911 | 42 | 323 | 0.0 | 0.0 | 0.00 | 0.00 | 0.00 | 92 | 1007.2 |
| 20260506142411 | 42 | 323 | 0.0 | 0.0 | 0.00 | 0.00 | 0.00 | 92 | 1007.4 |
| 20260506141911 | 42 | 323 | 0.0 | 0.0 | 0.00 | 0.00 | 0.00 | 92 | 1007.5 |
| 20260506141411 | 42 | 323 | 0.0 | 0.9 | 0.00 | 0.00 | 0.00 | 92 | 1007.6 |
| 20260506140914 | 42 | 323 | 0.0 | 0.0 | 0.00 | 0.00 | 0.00 | 92 | 1007.4 |
| 20260506140411 | 42 | 323 | 0.0 | 0.0 | 0.00 | 0.00 | 0.00 | 92 | 1007.4 |
| 20260506135914 | 42 | 323 | 0.0 | 1.7 | 0.00 | 0.00 | 0.00 | 91 | 1007.4 |
| 20260506135411 | 42 | 323 | 0.0 | 1.7 | 0.00 | 0.00 | 0.00 | 92 | 1007.4 |
| 20260506134910 | 42 | 323 | 0.0 | 0.9 | 0.00 | 0.00 | 0.00 | 91 | 1007.2 |
| 20260506134417 | 42 | 323 | 0.0 | 2.6 | 0.00 | 0.00 | 0.00 | 91 | 1007.2 |
| 20260506133911 | 42 | 324 | 0.0 | 3.5 | 0.00 | 0.00 | 0.00 | 91 | 1007.2 |
| 20260506133414 | 42 | 322 | 1.7 | 2.6 | 0.00 | 0.00 | 0.00 | 91 | 1007.4 |
| 20260506132917 | 42 | 316 | 0.0 | 0.9 | 0.00 | 0.00 | 0.00 | 91 | 1007.5 |
| 20260506132410 | 42 | 316 | 0.0 | 1.7 | 0.00 | 0.00 | 0.00 | 91 | 1007.5 |
| 20260506131910 | 42 | 316 | 0.0 | 0.9 | 0.00 | 0.00 | 0.00 | 91 | 1007.5 |
| 20260506131414 | 42 | 316 | 0.0 | 0.9 | 0.00 | 0.00 | 0.00 | 91 | 1007.7 |
| 20260506130914 | 43 | 316 | 0.0 | 1.7 | 0.00 | 0.00 | 0.00 | 91 | 1007.8 |
| 20260506130410 | 43 | 311 | 0.9 | 1.7 | 0.00 | 0.00 | 0.00 | 91 | 1007.8 |
| 20260506125910 | 43 | 311 | 0.0 | 0.0 | 0.00 | 0.00 | 0.00 | 91 | 1008.0 |
| 20260506125410 | 43 | 311 | 0.0 | 0.9 | 0.00 | 0.00 | 0.00 | 91 | 1008.0 |
| 20260506124913 | 43 | 311 | 0.0 | 0.0 | 0.00 | 0.00 | 0.00 | 91 | 1008.1 |
| 20260506124417 | 43 | 311 | 0.0 | 0.0 | 0.00 | 0.00 | 0.00 | 91 | 1007.8 |
| 20260506123910 | 44 | 311 | 0.0 | 3.5 | 0.00 | 0.00 | 0.00 | 91 | 1007.9 |
| 20260506123410 | 44 | 316 | 0.0 | 4.3 | 0.00 | 0.00 | 0.00 | 91 | 1007.8 |
| 20260506122913 | 44 | 170 | 0.9 | 2.6 | 0.00 | 0.00 | 0.00 | 92 | 1007.7 |
| 20260506122414 | 44 | 170 | 0.0 | 0.9 | 0.00 | 0.00 | 0.00 | 91 | 1007.9 |
| 20260506121910 | 44 | 170 | 0.0 | 1.7 | 0.00 | 0.00 | 0.00 | 91 | 1008.1 |
| 20260506121419 | 44 | 170 | 0.0 | 0.0 | 0.00 | 0.00 | 0.00 | 92 | 1008.4 |
| 20260506120913 | 44 | 170 | 0.0 | 0.0 | 0.00 | 0.00 | 0.00 | 92 | 1008.2 |
| 20260506120410 | 44 | 170 | 0.0 | 0.0 | 0.00 | 0.00 | 0.00 | 91 | 1008.4 |
| 20260506115913 | 44 | 170 | 0.0 | 0.0 | 0.00 | 0.00 | 0.00 | 91 | 1008.4 |
| 20260506115413 | 44 | 170 | 0.0 | 0.0 | 0.00 | 0.00 | 0.00 | 91 | 1008.3 |
| 20260506114911 | 44 | 170 | 0.0 | 0.9 | 0.00 | 0.00 | 0.00 | 91 | 1008.2 |
| 20260506114410 | 44 | 170 | 0.0 | 0.0 | 0.00 | 0.00 | 0.00 | 91 | 1008.3 |
| 20260506113913 | 45 | 170 | 0.0 | 0.0 | 0.00 | 0.00 | 0.00 | 92 | 1008.6 |
| 20260506113410 | 45 | 170 | 0.0 | 0.0 | 0.00 | 0.00 | 0.00 | 92 | 1008.4 |
| 20260506112910 | 45 | 170 | 0.0 | 0.0 | 0.00 | 0.00 | 0.00 | 92 | 1008.6 |
| 20260506112410 | 45 | 170 | 0.0 | 0.0 | 0.00 | 0.00 | 0.00 | 92 | 1008.3 |
| 20260506111914 | 45 | 170 | 0.0 | 0.0 | 0.00 | 0.00 | 0.00 | 92 | 1008.0 |
| 20260506111411 | 45 | 170 | 0.0 | 0.0 | 0.00 | 0.00 | 0.00 | 92 | 1007.8 |
| 20260506110911 | 45 | 170 | 0.0 | 0.0 | 0.00 | 0.00 | 0.00 | 91 | 1007.5 |
| 20260506110416 | 45 | 170 | 0.0 | 0.0 | 0.00 | 0.00 | 0.00 | 91 | 1007.6 |
| 20260506105910 | 45 | 170 | 0.0 | 1.7 | 0.00 | 0.00 | 0.00 | 91 | 1007.5 |
| 20260506105410 | 45 | 170 | 0.0 | 0.0 | 0.00 | 0.00 | 0.00 | 91 | 1007.7 |
| 20260506104913 | 45 | 170 | 0.0 | 1.7 | 0.00 | 0.00 | 0.00 | 91 | 1007.8 |
| 20260506104410 | 45 | 170 | 0.0 | 0.9 | 0.00 | 0.00 | 0.00 | 91 | 1007.8 |
| 20260506103913 | 46 | 170 | 0.0 | 0.0 | 0.00 | 0.00 | 0.00 | 91 | 1007.8 |
| 20260506103416 | 46 | 171 | 0.0 | 0.0 | 0.00 | 0.00 | 0.00 | 91 | 1007.7 |
| 20260506102910 | 46 | 164 | 0.0 | 0.0 | 0.00 | 0.00 | 0.00 | 91 | 1007.7 |
| 20260506102412 | 46 | 164 | 0.0 | 0.0 | 0.00 | 0.00 | 0.00 | 92 | 1007.6 |
| 20260506101910 | 46 | 164 | 0.0 | 0.0 | 0.00 | 0.00 | 0.00 | 92 | 1007.8 |
| 20260506101412 | 46 | 164 | 0.0 | 0.0 | 0.00 | 0.00 | 0.00 | 92 | 1007.9 |
| 20260506100910 | 46 | 164 | 0.0 | 0.0 | 0.00 | 0.00 | 0.00 | 92 | 1007.7 |
| 20260506100410 | 46 | 164 | 0.0 | 0.0 | 0.00 | 0.00 | 0.00 | 92 | 1007.8 |
| 20260506095910 | 46 | 164 | 0.0 | 0.0 | 0.00 | 0.00 | 0.00 | 92 | 1007.8 |
| 20260506095409 | 46 | 164 | 0.0 | 1.7 | 0.00 | 0.00 | 0.00 | 92 | 1007.8 |
| 20260506094915 | 46 | 164 | 0.0 | 1.7 | 0.00 | 0.00 | 0.00 | 92 | 1007.1 |
| 20260506094413 | 46 | 164 | 0.0 | 0.0 | 0.00 | 0.00 | 0.00 | 92 | 1008.3 |
| 20260506093913 | 47 | 164 | 0.0 | 0.0 | 0.00 | 0.00 | 0.00 | 91 | 1008.0 |
| 20260506093413 | 47 | 164 | 0.0 | 0.0 | 0.00 | 0.00 | 0.00 | 91 | 1007.8 |
| 20260506092909 | 47 | 164 | 0.0 | 0.0 | 0.00 | 0.00 | 0.00 | 91 | 1008.0 |
| 20260506092416 | 47 | 164 | 0.0 | 1.7 | 0.00 | 0.00 | 0.00 | 91 | 1008.3 |
| 20260506091909 | 47 | 164 | 0.0 | 1.7 | 0.00 | 0.00 | 0.00 | 92 | 1008.0 |
| 20260506091416 | 47 | 164 | 0.0 | 0.0 | 0.00 | 0.00 | 0.00 | 92 | 1008.2 |
| 20260506090915 | 47 | 164 | 0.0 | 0.0 | 0.00 | 0.00 | 0.00 | 92 | 1008.5 |
| 20260506090413 | 47 | 164 | 0.0 | 0.0 | 0.00 | 0.00 | 0.00 | 91 | 1008.2 |
| 20260506085912 | 47 | 164 | 0.0 | 0.0 | 0.00 | 0.00 | 0.00 | 91 | 1008.0 |
| 20260506085412 | 47 | 164 | 0.0 | 0.0 | 0.00 | 0.00 | 0.00 | 91 | 1008.4 |
| 20260506084909 | 48 | 164 | 0.0 | 0.0 | 0.00 | 0.00 | 0.00 | 91 | 1008.2 |
| 20260506084409 | 48 | 164 | 0.0 | 0.0 | 0.00 | 0.00 | 0.00 | 91 | 1008.1 |
| 20260506083913 | 48 | 164 | 0.0 | 0.0 | 0.00 | 0.00 | 0.00 | 91 | 1008.2 |
| 20260506083409 | 48 | 164 | 0.0 | 0.0 | 0.00 | 0.00 | 0.00 | 91 | 1008.2 |
| 20260506082910 | 48 | 164 | 0.0 | 0.9 | 0.00 | 0.00 | 0.00 | 91 | 1008.1 |
| 20260506082412 | 48 | 164 | 0.9 | 0.9 | 0.00 | 0.00 | 0.00 | 91 | 1007.8 |
| 20260506081910 | 48 | 164 | 0.0 | 0.0 | 0.00 | 0.00 | 0.00 | 91 | 1008.5 |
| 20260506081413 | 49 | 164 | 0.0 | 0.0 | 0.00 | 0.00 | 0.00 | 91 | 1008.3 |
| 20260506080909 | 49 | 164 | 0.0 | 0.0 | 0.00 | 0.00 | 0.00 | 91 | 1008.2 |
| 20260506080409 | 49 | 164 | 0.0 | 0.0 | 0.00 | 0.00 | 0.00 | 92 | 1008.4 |
| 20260506073413 | 49 | 164 | 0.0 | 0.0 | 0.00 | 0.00 | 0.00 | 92 | 1007.7 |
| 20260506072910 | 50 | 164 | 0.0 | 0.0 | 0.00 | 0.00 | 0.00 | 92 | 1008.1 |
| 20260506072409 | 50 | 164 | 0.0 | 0.0 | 0.00 | 0.00 | 0.00 | 92 | 1008.0 |
| 20260506071909 | 50 | 164 | 0.0 | 0.0 | 0.00 | 0.00 | 0.00 | 92 | 1008.1 |
| 20260506071409 | 50 | 164 | 0.0 | 0.0 | 0.00 | 0.00 | 0.00 | 92 | 1008.0 |
| 20260506070909 | 50 | 164 | 0.0 | 0.0 | 0.00 | 0.00 | 0.00 | 91 | 1007.9 |
| 20260506070409 | 50 | 164 | 0.0 | 0.0 | 0.00 | 0.00 | 0.00 | 91 | 1007.9 |
| 20260506062412 | 50 | 164 | 0.0 | 0.0 | 0.00 | 0.00 | 0.00 | 91 | 1007.7 |
| 20260506061909 | 50 | 164 | 0.0 | 0.0 | 0.00 | 0.00 | 0.00 | 91 | 1007.9 |
| 20260506061412 | 50 | 164 | 0.0 | 0.0 | 0.00 | 0.00 | 0.00 | 91 | 1008.2 |
| 20260506060908 | 51 | 164 | 0.0 | 0.9 | 0.00 | 0.00 | 0.00 | 91 | 1008.2 |
| 20260506060412 | 51 | 164 | 0.9 | 0.9 | 0.00 | 0.00 | 0.00 | 91 | 1008.1 |
| 20260506051411 | 51 | 164 | 0.0 | 0.0 | 0.00 | 0.00 | 0.00 | 91 | 1008.2 |
| 20260506050911 | 51 | 164 | 0.0 | 0.0 | 0.00 | 0.00 | 0.00 | 90 | 1008.3 |
| 20260506050408 | 51 | 164 | 0.0 | 0.0 | 0.00 | 0.00 | 0.00 | 90 | 1008.2 |
| 20260506044911 | 51 | 164 | 0.0 | 0.0 | 0.00 | 0.00 | 0.00 | 90 | 1008.0 |
| 20260506044409 | 51 | 164 | 0.0 | 0.0 | 0.00 | 0.00 | 0.00 | 90 | 1007.6 |
| 20260506043908 | 51 | 164 | 0.0 | 0.0 | 0.00 | 0.00 | 0.00 | 90 | 1007.6 |
| 20260506043411 | 51 | 164 | 0.0 | 0.0 | 0.00 | 0.00 | 0.00 | 90 | 1007.2 |
| 20260506042908 | 51 | 164 | 0.0 | 0.0 | 0.00 | 0.00 | 0.00 | 89 | 1007.7 |
| 20260506042408 | 51 | 164 | 0.0 | 0.0 | 0.00 | 0.00 | 0.00 | 89 | 1007.3 |
| 20260506041915 | 51 | 164 | 0.0 | 0.0 | 0.00 | 0.00 | 0.00 | 89 | 1007.5 |
| 20260506041408 | 52 | 164 | 0.0 | 0.9 | 0.00 | 0.00 | 0.00 | 89 | 1007.7 |
| 20260506040911 | 52 | 164 | 0.0 | 0.0 | 0.00 | 0.00 | 0.00 | 89 | 1008.0 |
| 20260506040408 | 52 | 164 | 0.0 | 0.0 | 0.00 | 0.00 | 0.00 | 88 | 1008.1 |
| 20260506035914 | 52 | 164 | 0.0 | 0.0 | 0.00 | 0.00 | 0.00 | 88 | 1007.8 |
| 20260506035417 | 52 | 164 | 0.0 | 0.0 | 0.00 | 0.00 | 0.00 | 87 | 1007.6 |
| 20260506034911 | 52 | 164 | 0.0 | 0.9 | 0.00 | 0.00 | 0.00 | 87 | 1007.7 |
| 20260506034408 | 52 | 164 | 0.0 | 0.0 | 0.00 | 0.00 | 0.00 | 86 | 1007.6 |
| 20260506033911 | 53 | 164 | 0.0 | 0.9 | 0.00 | 0.00 | 0.00 | 85 | 1007.7 |
| 20260506033409 | 53 | 164 | 0.0 | 0.9 | 0.00 | 0.00 | 0.00 | 83 | 1007.3 |
| 20260506032908 | 54 | 164 | 0.0 | 0.0 | 0.00 | 0.00 | 0.00 | 81 | 1007.2 |
| 20260506032414 | 54 | 164 | 0.0 | 0.0 | 0.00 | 0.00 | 0.00 | 80 | 1007.4 |
| 20260506031908 | 55 | 164 | 0.0 | 0.9 | 0.00 | 0.00 | 0.00 | 77 | 1007.3 |
| 20260506031408 | 55 | 164 | 0.0 | 0.0 | 0.00 | 0.00 | 0.00 | 76 | 1007.3 |
| 20260506030908 | 56 | 164 | 0.0 | 0.0 | 0.00 | 0.00 | 0.00 | 75 | 1007.1 |
| 20260506030411 | 56 | 164 | 0.0 | 0.0 | 0.00 | 0.00 | 0.00 | 74 | 1007.1 |
| 20260506025912 | 56 | 164 | 0.0 | 0.0 | 0.00 | 0.00 | 0.00 | 73 | 1007.0 |
| 20260506025411 | 56 | 164 | 0.0 | 0.0 | 0.00 | 0.00 | 0.00 | 71 | 1006.9 |
| 20260506024908 | 56 | 164 | 0.0 | 0.9 | 0.00 | 0.00 | 0.00 | 70 | 1006.7 |
| 20260506024408 | 57 | 164 | 0.9 | 4.3 | 0.00 | 0.00 | 0.00 | 73 | 1006.7 |
| 20260506023911 | 57 | 321 | 0.0 | 1.7 | 0.00 | 0.00 | 0.00 | 74 | 1006.7 |
| 20260506023414 | 57 | 320 | 0.0 | 0.0 | 0.00 | 0.00 | 0.00 | 75 | 1006.6 |
| 20260506022911 | 57 | 320 | 0.0 | 2.6 | 0.00 | 0.00 | 0.00 | 76 | 1006.6 |
| 20260506022408 | 57 | 316 | 0.0 | 2.6 | 0.00 | 0.00 | 0.00 | 77 | 1006.5 |
| 20260506021908 | 57 | 347 | 1.7 | 3.5 | 0.00 | 0.00 | 0.00 | 78 | 1006.5 |
| 20260506021409 | 57 | 342 | 0.0 | 2.6 | 0.00 | 0.00 | 0.00 | 81 | 1006.3 |
| 20260506020907 | 57 | 341 | 0.0 | 5.2 | 0.00 | 0.00 | 0.00 | 83 | 1006.2 |
| 20260506020411 | 57 | 189 | 0.0 | 2.6 | 0.00 | 0.00 | 0.00 | 86 | 1006.2 |
| 20260506015908 | 57 | 189 | 0.0 | 0.9 | 0.00 | 0.00 | 0.00 | 86 | 1006.1 |
| 20260506015410 | 57 | 189 | 0.0 | 0.0 | 0.00 | 0.00 | 0.00 | 86 | 1006.1 |
| 20260506014911 | 57 | 189 | 0.0 | 0.0 | 0.00 | 0.00 | 0.00 | 86 | 1006.0 |
| 20260506014408 | 57 | 189 | 0.0 | 0.9 | 0.00 | 0.00 | 0.00 | 86 | 1005.9 |
| 20260506013909 | 57 | 189 | 0.0 | 0.9 | 0.00 | 0.00 | 0.00 | 86 | 1005.7 |
| 20260506013407 | 57 | 189 | 0.0 | 0.9 | 0.00 | 0.00 | 0.00 | 86 | 1005.6 |
| 20260506012908 | 57 | 189 | 0.0 | 0.0 | 0.00 | 0.00 | 0.00 | 86 | 1005.5 |
| 20260506012411 | 57 | 189 | 0.0 | 0.0 | 0.00 | 0.00 | 0.00 | 86 | 1005.3 |
| 20260506011912 | 58 | 189 | 0.0 | 0.0 | 0.00 | 0.00 | 0.00 | 86 | 1005.2 |
| 20260506011410 | 58 | 189 | 0.0 | 0.0 | 0.00 | 0.00 | 0.00 | 86 | 1005.1 |
| 20260506010907 | 58 | 189 | 0.0 | 0.9 | 0.00 | 0.00 | 0.00 | 85 | 1005.0 |
| 20260506010409 | 58 | 189 | 0.0 | 0.9 | 0.00 | 0.00 | 0.00 | 85 | 1004.9 |
| 20260506005911 | 58 | 189 | 0.0 | 0.9 | 0.00 | 0.00 | 0.00 | 84 | 1005.1 |
| 20260506005413 | 59 | 189 | 0.0 | 0.9 | 0.00 | 0.00 | 0.00 | 83 | 1005.1 |
| 20260506004908 | 59 | 189 | 0.0 | 7.0 | 0.00 | 0.00 | 0.00 | 82 | 1002.2 |
| 20260506004410 | 60 | 189 | 0.0 | 7.8 | 0.00 | 0.00 | 0.00 | 78 | 1002.2 |
| 20260506003907 | 60 | 189 | 0.0 | 7.0 | 0.00 | 0.00 | 0.00 | 78 | 1001.8 |
| 20260506003407 | 60 | 189 | 0.0 | 3.5 | 0.00 | 0.00 | 0.00 | 78 | 1001.8 |
| 20260506002913 | 60 | 189 | 0.0 | 3.5 | 0.00 | 0.00 | 0.00 | 78 | 1001.8 |
| 20260506002407 | 60 | 189 | 0.0 | 0.0 | 0.00 | 0.00 | 0.00 | 78 | 1001.6 |
| 20260506001913 | 60 | 189 | 0.0 | 3.5 | 0.00 | 0.00 | 0.00 | 78 | 1001.6 |
| 20260506001410 | 60 | 189 | 0.0 | 0.0 | 0.00 | 0.00 | 0.00 | 77 | 1001.5 |
| 20260506000913 | 60 | 189 | 0.0 | 0.0 | 0.00 | 0.00 | 0.00 | 77 | 1001.5 |
| 20260506000411 | 60 | 189 | 0.0 | 6.1 | 0.00 | 0.00 | 0.00 | 77 | 1001.5 |
| 20260505235910 | 60 | 189 | 0.0 | 0.0 | 0.00 | 0.00 | 0.00 | 77 | 1001.6 |
| 20260505235413 | 60 | 189 | 0.0 | 0.0 | 0.00 | 0.00 | 0.00 | 77 | 1001.6 |
| 20260505234913 | 60 | 189 | 0.0 | 0.0 | 0.00 | 0.00 | 0.00 | 78 | 1001.4 |
| 20260505234414 | 61 | 189 | 0.0 | 1.7 | 0.00 | 0.00 | 0.00 | 78 | 1001.3 |
| 20260505233907 | 61 | 189 | 0.0 | 4.3 | 0.00 | 0.00 | 0.00 | 78 | 1001.4 |
| 20260505233410 | 61 | 189 | 0.0 | 4.3 | 0.00 | 0.00 | 0.00 | 78 | 1001.5 |
| 20260505232913 | 61 | 189 | 0.0 | 1.7 | 0.00 | 0.00 | 0.00 | 78 | 1001.5 |
| 20260505232407 | 61 | 189 | 0.0 | 2.6 | 0.00 | 0.00 | 0.00 | 77 | 1001.4 |
| 20260505231907 | 61 | 189 | 0.0 | 0.9 | 0.00 | 0.00 | 0.00 | 77 | 1001.3 |
| 20260505231408 | 61 | 189 | 0.0 | 0.0 | 0.00 | 0.00 | 0.00 | 77 | 1001.0 |
| 20260505230913 | 61 | 189 | 0.0 | 0.0 | 0.00 | 0.00 | 0.00 | 77 | 1000.8 |
| 20260505230408 | 61 | 189 | 0.0 | 0.0 | 0.00 | 0.00 | 0.00 | 77 | 1000.8 |
| 20260505225907 | 61 | 189 | 0.0 | 1.7 | 0.00 | 0.00 | 0.00 | 78 | 1000.8 |
| 20260505225407 | 61 | 189 | 0.9 | 0.0 | 0.00 | 0.00 | 0.00 | 78 | 1000.8 |
| 20260505224907 | 61 | 189 | 0.9 | 0.9 | 0.00 | 0.00 | 0.00 | 78 | 1000.8 |
| 20260505224407 | 61 | 192 | 0.0 | 3.5 | 0.00 | 0.00 | 0.00 | 79 | 1000.9 |
| 20260505223907 | 61 | 192 | 0.0 | 7.0 | 0.00 | 0.00 | 0.00 | 79 | 1000.9 |
| 20260505223407 | 61 | 192 | 0.0 | 0.0 | 0.00 | 0.00 | 0.00 | 79 | 1000.9 |
| 20260505222907 | 61 | 192 | 0.0 | 0.0 | 0.00 | 0.00 | 0.00 | 80 | 1000.9 |
| 20260505222407 | 61 | 147 | 0.0 | 3.5 | 0.00 | 0.00 | 0.00 | 80 | 1001.0 |
| 20260505221907 | 61 | 144 | 0.0 | 4.3 | 0.00 | 0.00 | 0.00 | 80 | 1001.0 |